Location: Kalberh�ni
(46.4610°N, 7.2453°E)
Time: 07:00:59
(UTC+00:00)

deb Kosmos-2227 - Pass Details

Date: 14 August 2022
Orbit: 774 x 865 km, 70.9° (Epoch: 26 September)

Event Time Altitude Azimuth Distance (km) Brightness Sun altitude
Rises 00:03:16 0° 329° (NNW) 3,344 ? -28.8°
Reaches altitude 10° 00:05:43 10° 324° (NW) 2,422 ? -28.7°
Enters shadow 00:09:58 45° 288° (WNW) 1,128 ? -28.6°
